DIAMANT R/B, 2682

Orbit data source: Space-Track

DIAMANT R/B, 2682 is space debris in LEO originally from a launch on Wed, 15 Feb 1967 UTC launched from the Hamma Guira Space Track Range (HGSTR). Debris objects in space refer to the collection of defunct objects orbiting the Earth. Examples of debris include non-operational satellites, rocket bodies, and fragments generated from explosions, collisions, or faulty payload assembly.

Loading next visibility...
DIAMANT R/B details
Identifier
2682, 1967-014B
Orbit
LEO
Last TLE update19 hours ago
Origin
Flag of FRCNES (FR)
ManufacturerSud
MissionSpacecraft
Bus & MotorRUBIS, Unknown motor
Mass65 kg wet, 65 kg dry
Launch date (UTC)
1967-02-15 (58 years ago)
Launch vehicleUnknown
Launch site
Hamma Guira Space Track Range (HGSTR)
Object type
Payload
Rocket body
Debris
Shape & HBRCyl, 2.1 m
Radar Cross Section1.347 m², Large (>1 m²)

Expand to show TLE details & history

TLE from 19 hours ago
0 DIAMANT R/B
1 02682U 67014B   24355.76102492  .00001605  00000-0  70871-3 0  9994
2 02682  39.4553 133.4250 0747864 131.6570 235.0683 13.31068688791419
Epoch: 2024-12-20T18:15Z
Definitive object data (Epoch: 2024-12-20T18:15:52.553Z)
Latitude-0.00001°
Longitude129.63412°
Altitude1,490.69 km
Speed6.954 km/s
True Right ascension08h 53m 41s
True Declination0° 00' 00"
Sunlit
Object was in full shadow at TLE epoch
Visualization TLE readout
Latitude-33.16938°
Longitude-1.65102°
Altitude1,236.748 km
Speed7.196 km/s
Apparent Right ascension00h 15m 57s
Apparent Declination-36° 05' 43"
Sunlit
Object is in daylight
Visualization observer readout
Local Sidereal Time12:25:35
Azimuth27.176° NE
Elevation-85.734°
Doppler factor1
Orbital elements
Apogee altitude1,707.702 km
Perigee altitude582.435 km
Semi-major axis7,523.205 km
Eccentricity0.0747864
Inclination39.4553°
RAAN133.425°
Arg. of periapsis131.657°
True anomaly228.41492°
Mean anomaly235.0683°
Eccentric anomaly231.70533°
Mean motion3.32613 °/min
BSTAR0.00070871
Orbital period108.23 mins
Loading maneuver chart data...
Loading historical data...
Loading historical data...
Loading historical data...
Loading historical data...
Loading historical data...
Loading historical data...
Loading historical data...

DIAMANT R/B Visibility forecast

Observer location: undefined°, undefined

Span
Click to sort rows by Start time (UTC) header in descending order
Start Az.
Max El. time (UTC)
Max El. Az.
Max El.
End time (UTC)
End Az.
11 mins2024-12-21 14:21:38.510Z253.071° W2024-12-21 14:27:38.510Z175.909° S44.1°2024-12-21 14:32:38.510Z84.621° E
8 mins2024-12-21 16:17:38.510Z273.362° WNW2024-12-21 16:21:38.510Z208.328° SW44.51°2024-12-21 16:25:38.510Z102.23° ESE
6 mins2024-12-21 18:12:38.510Z260.038° W2024-12-21 18:15:38.510Z196.737° SSW27.83°2024-12-21 18:18:38.510Z145.957° SSE
11 mins2024-12-22 11:51:38.510Z210.556° SW2024-12-22 11:57:38.510Z152.05° SSE30.061°2024-12-22 12:02:38.510Z91.935° ESE
|